OK,102,29,750,102,2014-10-01T01:40:00,0,28072077,187615
OK,102,29,750,102,2014-10-01T01:45:00,0,28072520,187615
OK,102,29,750,102,2014-10-01T01:50:00,0,28072969,187615
OK,102,29,750,102,2014-10-01T01:55:00,0,28073416,187615
OK,102,29,750,102,2014-10-01T02:05:00,0,28074182,187615
OK,102,29,750,102,2014-10-01T02:10:00,0,28074631,187615
OK,2048,1,750,2048,2014-10-01T02:15:00,2,28075071,187615
OK,2048,1,750,2048,2014-10-01T02:20:00,0,28075520,187615
OK,2048,1,750,2048,2014-10-01T02:25:00,0,28075969,187615
OK,2048,1,750,2048,2014-10-01T02:30:00,0,28076352,187615
OK,2048,1,750,2048,2014-10-01T02:35:00,0,28076801,187615
OK,2048,1,750,2048,2014-10-01T02:40:00,0,28077250,187615
OK,2048,1,750,2048,2014-10-01T02:45:00,0,28077699,187615
OK,2048,1,750,2048,2014-10-01T02:50:00,0,28078102,187615
OK,2048,1,750,2048,2014-10-01T02:55:00,0,28078551,187615
OK,2048,1,750,2048,2014-10-01T03:00:00,0,28078996,187615
OK,2048,1,750,2048,2014-10-01T03:05:00,0,28079444,187615
OK,2048,1,750,2048,2014-10-01T03:10:00,0,28079887,187615
OK,2048,1,750,2048,2014-10-01T03:20:00,0,28080670,187615
OK,2048,1,750,2048,2014-10-01T03:25:00,0,28081119,187615
OK,2048,1,750,2048,2014-10-01T03:30:00,0,28081567,187615
OK,2048,1,750,2048,2014-10-01T03:35:00,0,28082015,187615
OK,2048,1,750,2048,2014-10-01T03:40:00,0,28082464,187615
OK,2048,1,750,2048,2014-10-01T03:45:00,0,28082897,187615
OK,2048,1,750,2048,2014-10-01T03:50:00,0,28083329,187615
OK,2048,1,750,2048,2014-10-01T03:55:00,0,28083778,187615
OK,1166,2,750,1166,2014-10-01T04:00:00,2,28084227,187615
OK,1166,2,750,1166,2014-10-01T04:05:00,2,28084668,187615
OK,1166,2,750,1166,2014-10-01T04:10:00,0,28085093,187615
OK,1166,2,750,1166,2014-10-01T04:15:00,0,28085542,187615
OK,1166,2,750,1166,2014-10-01T04:20:00,0,28085987,187615
OK,1166,2,750,1166,2014-10-01T04:25:00,0,28086436,187615
OK,1166,2,750,1166,2014-10-01T04:30:00,0,28086878,187615
OK,1166,2,750,1166,2014-10-01T04:35:00,0,28087327,187615
OK,1166,2,750,1166,2014-10-01T04:40:00,0,28087772,187615
OK,1166,2,750,1166,2014-10-01T04:45:00,0,28088221,187615
OK,1166,2,750,1166,2014-10-01T04:50:00,0,28088645,187615
OK,1166,2,750,1166,2014-10-01T04:55:00,0,28089094,187615
OK,1166,2,750,1166,2014-10-01T05:00:00,0,28089524,187615
OK,1166,2,750,1166,2014-10-01T05:05:00,0,28089973,187615
OK,1166,2,750,1166,2014-10-01T05:10:00,0,28090422,187615
OK,1166,2,750,1166,2014-10-01T05:15:00,0,28090766,187615
OK,155,19,750,155,2014-10-01T05:20:00,2,28091215,187615
OK,171,17,750,171,2014-10-01T05:25:00,3,28091664,187615
OK,1780,1,750,1780,2014-10-01T05:30:00,1,28092081,187615
OK,1780,1,750,1780,2014-10-01T05:35:00,0,28092530,187615
OK,1780,1,750,1780,2014-10-01T05:40:00,0,28092974,187615
OK,121,24,750,121,2014-10-01T05:45:00,2,28093415,187615
OK,121,24,750,121,2014-10-01T05:50:00,2,28093846,187615
OK,99,30,750,99,2014-10-01T05:55:00,0,28094294,187615
OK,99,30,750,99,2014-10-01T06:00:00,0,28094706,187615
OK,99,30,750,99,2014-10-01T06:05:00,0,28095151,187615
OK,99,30,750,99,2014-10-01T06:10:00,0,28095598,187615
OK,226,13,750,226,2014-10-01T06:15:00,1,28096047,187615
OK,176,17,750,176,2014-10-01T06:20:00,2,28096460,187615
OK,139,21,750,139,2014-10-01T06:25:00,3,28096909,187615
OK,143,21,750,143,2014-10-01T06:30:00,2,28097343,187615
OK,139,21,750,139,2014-10-01T06:35:00,0,28097792,187615
OK,251,12,750,251,2014-10-01T06:40:00,1,28098241,187615
OK,184,16,750,184,2014-10-01T06:45:00,2,28098678,187615
OK,117,25,750,117,2014-10-01T06:50:00,0,28099122,187615
OK,125,24,750,125,2014-10-01T07:00:00,1,28099913,187615
OK,108,27,750,108,2014-10-01T07:10:00,1,28100669,187615
OK,108,27,750,108,2014-10-01T07:20:00,0,28101489,187615
OK,162,18,750,162,2014-10-01T07:25:00,1,28101938,187615
OK,162,18,750,162,2014-10-01T07:30:00,0,28102374,187615
OK,162,18,750,162,2014-10-01T07:35:00,0,28102823,187615
OK,72,41,750,72,2014-10-01T07:40:00,1,28103250,187615
OK,115,26,750,115,2014-10-01T07:45:00,1,28103697,187615
OK,115,26,750,115,2014-10-01T07:50:00,1,28104142,187615
OK,109,27,750,109,2014-10-01T07:55:00,1,28104587,187615
OK,109,27,750,109,2014-10-01T08:00:00,1,28105028,187615
OK,112,26,750,112,2014-10-01T08:05:00,1,28105473,187615
OK,112,26,750,112,2014-10-01T08:10:00,3,28105913,187615
OK,106,28,750,106,2014-10-01T08:15:00,2,28106362,187615
OK,99,30,750,99,2014-10-01T08:20:00,1,28106798,187615
OK,99,30,750,99,2014-10-01T08:30:00,0,28107637,187615
OK,105,28,750,105,2014-10-01T08:35:00,1,28108086,187615
OK,117,25,750,117,2014-10-01T08:40:00,2,28108525,187615
OK,176,17,750,176,2014-10-01T08:45:00,1,28108974,187615
OK,176,17,750,176,2014-10-01T08:50:00,1,28109402,187615
OK,105,28,750,105,2014-10-01T09:00:00,1,28110194,187615
OK,152,19,750,152,2014-10-01T09:05:00,1,28110643,187615
OK,157,19,750,157,2014-10-01T09:10:00,2,28111066,187615
OK,163,18,750,163,2014-10-01T09:15:00,1,28111515,187615
OK,163,18,750,163,2014-10-01T09:20:00,0,28111944,187615
OK,163,18,750,163,2014-10-01T09:30:00,0,28112734,187615
OK,125,24,750,125,2014-10-01T09:35:00,4,28113183,187615
OK,118,25,750,118,2014-10-01T09:40:00,3,28113607,187615
OK,118,25,750,118,2014-10-01T09:45:00,0,28114056,187615
OK,111,27,750,111,2014-10-01T09:50:00,3,28114488,187615
OK,179,16,750,179,2014-10-01T10:00:00,1,28115291,187615
OK,179,16,750,179,2014-10-01T10:05:00,0,28115740,187615
OK,179,16,750,179,2014-10-01T10:10:00,0,28116152,187615
OK,190,15,750,190,2014-10-01T10:15:00,1,28116601,187615
OK,190,15,750,190,2014-10-01T10:20:00,1,28117009,187615
OK,190,15,750,190,2014-10-01T10:25:00,0,28117458,187615
OK,104,29,750,104,2014-10-01T10:30:00,1,28117883,187615
OK,145,20,750,145,2014-10-01T10:35:00,2,28118332,187615
OK,187,16,750,187,2014-10-01T10:40:00,1,28118777,187615
OK,149,20,750,149,2014-10-01T10:45:00,1,28119224,187615
OK,149,20,750,149,2014-10-01T10:50:00,1,28119668,187615
OK,149,20,750,149,2014-10-01T10:55:00,0,28120116,187615
OK,123,24,750,123,2014-10-01T11:00:00,2,28120564,187615
OK,129,23,750,129,2014-10-01T11:10:00,0,28121396,187615
OK,129,23,750,129,2014-10-01T11:15:00,0,28121845,187615
OK,129,23,750,129,2014-10-01T11:20:00,0,28122283,187615
OK,129,23,750,129,2014-10-01T11:25:00,0,28122732,187615
OK,129,23,750,129,2014-10-01T11:30:00,0,28123173,187615
OK,118,25,750,118,2014-10-01T11:35:00,1,28123622,187615
OK,118,25,750,118,2014-10-01T11:40:00,0,28124054,187615
OK,118,25,750,118,2014-10-01T11:45:00,0,28124503,187615
OK,88,34,750,88,2014-10-01T11:50:00,1,28124905,187615
OK,88,34,750,88,2014-10-01T11:55:00,1,28125354,187615
OK,85,35,750,85,2014-10-01T12:00:00,1,28125783,187615
OK,106,28,750,106,2014-10-01T12:10:00,1,28126584,187615
OK,106,28,750,106,2014-10-01T12:15:00,0,28127033,187615
OK,204,14,750,204,2014-10-01T12:20:00,1,28127482,187615
OK,151,20,750,151,2014-10-01T12:25:00,2,28127931,187615
OK,77,39,750,77,2014-10-01T12:30:00,2,28128359,187615
OK,80,37,750,80,2014-10-01T12:35:00,3,28128808,187615
OK,95,31,750,95,2014-10-01T12:40:00,1,28129243,187615
OK,95,31,750,95,2014-10-01T12:45:00,0,28129692,187615
OK,95,31,750,95,2014-10-01T12:50:00,0,28130126,187615
OK,113,26,750,113,2014-10-01T12:55:00,2,28130575,187615
OK,103,29,750,103,2014-10-01T13:00:00,1,28131003,187615
OK,103,29,750,103,2014-10-01T13:05:00,0,28131452,187615
OK,109,27,750,109,2014-10-01T13:10:00,1,28131889,187615
OK,109,27,750,109,2014-10-01T13:15:00,1,28132338,187615
OK,109,27,750,109,2014-10-01T13:20:00,0,28132776,187615
OK,109,27,750,109,2014-10-01T13:25:00,0,28133223,187615
OK,109,27,750,109,2014-10-01T13:30:00,0,28133661,187615
OK,109,27,750,109,2014-10-01T13:35:00,0,28134109,187615
OK,109,27,750,109,2014-10-01T13:40:00,0,28134549,187615
OK,109,27,750,109,2014-10-01T13:45:00,0,28134993,187615
OK,240,12,750,240,2014-10-01T13:50:00,1,28135417,187615
OK,101,29,750,101,2014-10-01T13:55:00,3,28135865,187615
OK,138,21,750,138,2014-10-01T14:00:00,1,28136303,187615
OK,138,21,750,138,2014-10-01T14:05:00,0,28136752,187615
OK,138,21,750,138,2014-10-01T14:10:00,0,28137192,187615
OK,144,20,750,144,2014-10-01T14:15:00,2,28137641,187615
OK,144,20,750,144,2014-10-01T14:20:00,2,28138075,187615
OK,168,17,750,168,2014-10-01T14:25:00,0,28138522,187615
OK,168,17,750,168,2014-10-01T14:30:00,0,28138952,187615
OK,168,17,750,168,2014-10-01T14:40:00,0,28139812,187615
OK,168,17,750,168,2014-10-01T14:45:00,0,28140261,187615
OK,168,17,750,168,2014-10-01T14:50:00,0,28140703,187615
OK,168,17,750,168,2014-10-01T14:55:00,0,28141149,187615
OK,168,17,750,168,2014-10-01T15:00:00,0,28141578,187615
OK,201,15,750,201,2014-10-01T15:05:00,1,28142027,187615
OK,201,15,750,201,2014-10-01T15:10:00,1,28142455,187615
OK,201,15,750,201,2014-10-01T15:15:00,0,28142904,187615
OK,201,15,750,201,2014-10-01T15:20:00,0,28143331,187615
OK,125,24,750,125,2014-10-01T15:25:00,1,28143780,187615
OK,125,24,750,125,2014-10-01T15:30:00,0,28144228,187615
OK,125,24,750,125,2014-10-01T15:35:00,0,28144677,187615
OK,125,24,750,125,2014-10-01T15:40:00,0,28145088,187615
OK,104,29,750,104,2014-10-01T15:45:00,1,28145512,187615
OK,104,29,750,104,2014-10-01T15:50:00,0,28145961,187615
OK,104,29,750,104,2014-10-01T15:55:00,0,28146410,187615
OK,103,29,750,103,2014-10-01T16:00:00,1,28146859,187615
OK,103,29,750,103,2014-10-01T16:05:00,1,28147267,187615
OK,103,29,750,103,2014-10-01T16:10:00,0,28147711,187615
OK,107,28,750,107,2014-10-01T16:20:00,1,28148561,187615
OK,107,28,750,107,2014-10-01T16:25:00,0,28149010,187615
OK,107,28,750,107,2014-10-01T16:30:00,0,28149449,187615
OK,107,28,750,107,2014-10-01T16:35:00,0,28149898,187615
OK,107,28,750,107,2014-10-01T16:40:00,0,28150324,187615
OK,107,28,750,107,2014-10-01T16:45:00,0,28150773,187615
OK,107,28,750,107,2014-10-01T16:50:00,0,28151191,187615
OK,107,28,750,107,2014-10-01T16:55:00,0,28151640,187615
OK,107,28,750,107,2014-10-01T17:05:00,0,28152089,187615
OK,107,28,750,107,2014-10-01T17:10:00,0,28152538,187615
OK,107,28,750,107,2014-10-01T17:15:00,0,28152984,187615
OK,107,28,750,107,2014-10-01T17:20:00,0,28153431,187615
OK,107,28,750,107,2014-10-01T17:25:00,0,28153880,187615
OK,107,28,750,107,2014-10-01T17:30:00,0,28154290,187615
OK,107,28,750,107,2014-10-01T17:35:00,0,28154739,187615
OK,118,25,750,118,2014-10-01T17:40:00,1,28155181,187615
OK,107,28,750,107,2014-10-01T17:45:00,0,28155629,187615
OK,107,28,750,107,2014-10-01T17:50:00,0,28156047,187615
OK,107,28,750,107,2014-10-01T17:55:00,0,28156496,187615
OK,107,28,750,107,2014-10-01T18:00:00,0,28156944,187615
OK,117,25,750,117,2014-10-01T18:05:00,1,28157383,187615
OK,117,25,750,117,2014-10-01T18:10:00,1,28157812,187615
OK,117,25,750,117,2014-10-01T18:15:00,0,28158261,187615
OK,119,25,750,119,2014-10-01T18:20:00,1,28158705,187615
OK,144,20,750,144,2014-10-01T18:25:00,2,28159150,187615
OK,119,25,750,119,2014-10-01T18:35:00,0,28159932,187615
OK,119,25,750,119,2014-10-01T18:40:00,0,28160381,187615
OK,76,39,750,76,2014-10-01T18:45:00,1,28160830,187615
OK,76,39,750,76,2014-10-01T18:50:00,1,28161268,187615
OK,76,39,750,76,2014-10-01T18:55:00,0,28161715,187615
OK,76,39,750,76,2014-10-01T19:00:00,0,28162134,187615
OK,76,39,750,76,2014-10-01T19:05:00,0,28162583,187615
OK,76,39,750,76,2014-10-01T19:10:00,0,28162977,187615
OK,76,39,750,76,2014-10-01T19:15:00,0,28163416,187615
OK,76,39,750,76,2014-10-01T19:20:00,0,28163864,187615
OK,76,39,750,76,2014-10-01T19:25:00,0,28164313,187615
OK,76,39,750,76,2014-10-01T19:30:00,0,28164744,187615
OK,76,39,750,76,2014-10-01T19:35:00,0,28165193,187615
OK,76,39,750,76,2014-10-01T19:40:00,0,28165618,187615
OK,76,39,750,76,2014-10-01T19:45:00,0,28166066,187615
OK,120,25,750,120,2014-10-01T19:55:00,1,28166869,187615
OK,120,25,750,120,2014-10-01T20:00:00,0,28167313,187615
OK,120,25,750,120,2014-10-01T20:10:00,0,28168180,187615
OK,120,25,750,120,2014-10-01T20:15:00,0,28169074,187615
OK,120,25,750,120,2014-10-01T20:25:00,0,28169523,187615
OK,120,25,750,120,2014-10-01T20:30:00,0,28170394,187615
OK,120,25,750,120,2014-10-01T20:40:00,0,28170842,187615
OK,120,25,750,120,2014-10-01T20:45:00,0,28171286,187615
OK,120,25,750,120,2014-10-01T20:50:00,0,28172172,187615
OK,120,25,750,120,2014-10-01T20:55:00,0,28172619,187615
OK,120,25,750,120,2014-10-01T21:00:00,0,28173064,187615
OK,120,25,750,120,2014-10-01T21:05:00,0,28173513,187615
OK,120,25,750,120,2014-10-01T21:10:00,0,28173956,187615
OK,120,25,750,120,2014-10-01T21:20:00,0,28174403,187615
OK,120,25,750,120,2014-10-01T21:25:00,0,28175225,187615
OK,120,25,750,120,2014-10-01T21:30:00,0,28175674,187615
OK,120,25,750,120,2014-10-01T21:40:00,0,28176123,187615
OK,120,25,750,120,2014-10-01T21:45:00,0,28176572,187615
OK,120,25,750,120,2014-10-01T21:50:00,0,28177370,187615
OK,120,25,750,120,2014-10-01T21:55:00,0,28177814,187615
OK,120,25,750,120,2014-10-01T22:05:00,0,28178263,187615
OK,120,25,750,120,2014-10-01T22:10:00,0,28178712,187615
OK,120,25,750,120,2014-10-01T22:15:00,0,28179159,187615
OK,120,25,750,120,2014-10-01T22:20:00,0,28179593,187615
OK,120,25,750,120,2014-10-01T22:25:00,0,28180036,187615
OK,120,25,750,120,2014-10-01T22:35:00,0,28180881,187615
OK,120,25,750,120,2014-10-01T22:40:00,0,28181753,187615
OK,120,25,750,120,2014-10-01T22:45:00,0,28182200,187615
OK,120,25,750,120,2014-10-01T22:55:00,0,28182649,187615
OK,120,25,750,120,2014-10-01T23:00:00,0,28183499,187615
OK,120,25,750,120,2014-10-01T23:05:00,0,28183944,187615
OK,120,25,750,120,2014-10-01T23:10:00,0,28184393,187615
OK,120,25,750,120,2014-10-01T23:15:00,0,28184828,187615
OK,120,25,750,120,2014-10-01T23:20:00,0,28185276,187615
OK,120,25,750,120,2014-10-01T23:25:00,0,28185707,187615
OK,120,25,750,120,2014-10-01T23:30:00,0,28186099,187615
OK,120,25,750,120,2014-10-01T23:35:00,0,28186548,187615
OK,120,25,750,120,2014-10-01T23:40:00,0,28186946,187615
OK,120,25,750,120,2014-10-01T23:45:00,0,28187388,187615
OK,120,25,750,120,2014-10-01T23:50:00,0,28187837,187615
OK,120,25,750,120,2014-10-01T23:55:00,0,28188278,187615
OK,120,25,750,120,2014-10-02T00:00:00,0,28188714,187615
OK,120,25,750,120,2014-10-02T00:10:00,0,28189163,187615
OK,120,25,750,120,2014-10-02T00:15:00,0,28189612,187615
OK,120,25,750,120,2014-10-02T00:20:00,0,28190034,187615
OK,120,25,750,120,2014-10-02T00:30:00,0,28190836,187615
OK,120,25,750,120,2014-10-02T00:35:00,0,28191285,187615
OK,120,25,750,120,2014-10-02T00:45:00,0,28192040,187615
OK,120,25,750,120,2014-10-02T00:50:00,0,28192489,187615
OK,120,25,750,120,2014-10-02T00:55:00,0,28192922,187615
OK,120,25,750,120,2014-10-02T01:00:00,0,28193733,187615
OK,120,25,750,120,2014-10-02T01:10:00,0,28194182,187615
OK,120,25,750,120,2014-10-02T01:15:00,0,28194631,187615
OK,120,25,750,120,2014-10-02T01:25:00,0,28195316,187615
OK,120,25,750,120,2014-10-02T01:30:00,0,28195765,187615
OK,120,25,750,120,2014-10-02T01:35:00,0,28196214,187615
OK,120,25,750,120,2014-10-02T01:40:00,0,28196498,187615
OK,120,25,750,120,2014-10-02T01:45:00,0,28196945,187615
OK,120,25,750,120,2014-10-02T01:50:00,0,28197370,187615
OK,120,25,750,120,2014-10-02T01:55:00,0,28197819,187615
OK,120,25,750,120,2014-10-02T02:00:00,0,28198267,187615
OK,120,25,750,120,2014-10-02T02:05:00,0,28198715,187615
OK,120,25,750,120,2014-10-02T02:10:00,0,28199164,187615
OK,120,25,750,120,2014-10-02T02:15:00,0,28199536,187615
OK,120,25,750,120,2014-10-02T02:20:00,0,28199977,187615
OK,120,25,750,120,2014-10-02T02:25:00,0,28200418,187615
OK,120,25,750,120,2014-10-02T02:30:00,0,28200863,187615
OK,120,25,750,120,2014-10-02T02:45:00,0,28201743,187615
OK,120,25,750,120,2014-10-02T02:50:00,0,28202192,187615
OK,120,25,750,120,2014-10-02T02:55:00,0,28202640,187615
OK,120,25,750,120,2014-10-02T03:00:00,0,28203083,187615
OK,120,25,750,120,2014-10-02T03:05:00,0,28203529,187615
OK,120,25,750,120,2014-10-02T03:10:00,0,28203966,187615
OK,120,25,750,120,2014-10-02T03:30:00,0,28204415,187615
OK,120,25,750,120,2014-10-02T03:35:00,0,28204864,187615
OK,120,25,750,120,2014-10-02T03:40:00,0,28205313,187615
OK,120,25,750,120,2014-10-02T03:45:00,0,28205741,187615
OK,120,25,750,120,2014-10-02T03:55:00,0,28206571,187615
OK,120,25,750,120,2014-10-02T04:00:00,0,28207020,187615
OK,120,25,750,120,2014-10-02T04:05:00,0,28207469,187615
OK,120,25,750,120,2014-10-02T04:10:00,0,28207888,187615
OK,120,25,750,120,2014-10-02T04:15:00,0,28208337,187615
OK,120,25,750,120,2014-10-02T04:20:00,0,28208764,187615
OK,120,25,750,120,2014-10-02T04:25:00,0,28209213,187615
OK,120,25,750,120,2014-10-02T04:30:00,0,28209651,187615
OK,120,25,750,120,2014-10-02T04:35:00,0,28210100,187615
OK,120,25,750,120,2014-10-02T04:40:00,0,28210523,187615
OK,120,25,750,120,2014-10-02T04:45:00,0,28210972,187615
OK,120,25,750,120,2014-10-02T04:50:00,0,28211397,187615
OK,120,25,750,120,2014-10-02T05:00:00,0,28212219,187615
OK,120,25,750,120,2014-10-02T05:05:00,0,28212668,187615
OK,120,25,750,120,2014-10-02T05:10:00,0,28213097,187615
OK,120,25,750,120,2014-10-02T05:15:00,0,28213546,187615
OK,120,25,750,120,2014-10-02T05:20:00,0,28213984,187615
OK,120,25,750,120,2014-10-02T05:25:00,0,28214433,187615
OK,120,25,750,120,2014-10-02T05:30:00,0,28214846,187615
OK,120,25,750,120,2014-10-02T05:35:00,0,28215295,187615
OK,120,25,750,120,2014-10-02T05:40:00,0,28215711,187615
OK,120,25,750,120,2014-10-02T05:45:00,0,28216160,187615
OK,120,25,750,120,2014-10-02T05:50:00,0,28216499,187615
OK,142,21,750,142,2014-10-02T05:55:00,1,28216939,187615
OK,142,21,750,142,2014-10-02T06:00:00,1,28217386,187615
OK,142,21,750,142,2014-10-02T06:05:00,0,28217835,187615
OK,142,21,750,142,2014-10-02T06:10:00,0,28218274,187615
OK,123,24,750,123,2014-10-02T06:15:00,1,28218723,187615
OK,123,24,750,123,2014-10-02T06:20:00,1,28219143,187615
OK,141,21,750,141,2014-10-02T06:30:00,2,28219965,187615
OK,141,21,750,141,2014-10-02T06:35:00,2,28220414,187615
OK,105,28,750,105,2014-10-02T06:40:00,1,28220848,187615
OK,127,23,750,127,2014-10-02T06:45:00,2,28221297,187615
OK,125,24,750,125,2014-10-02T07:00:00,2,28221962,187615
OK,135,22,750,135,2014-10-02T07:05:00,1,28222109,187615
OK,135,22,750,135,2014-10-02T07:10:00,0,28222558,187615
OK,135,22,750,135,2014-10-02T07:15:00,0,28223007,187615
OK,135,22,750,135,2014-10-02T07:20:00,0,28223437,187615
OK,102,29,750,102,2014-10-02T07:25:00,1,28223873,187615
OK,84,35,750,84,2014-10-02T07:35:00,0,28224676,187615
OK,84,35,750,84,2014-10-02T07:40:00,0,28225125,187615
OK,84,35,750,84,2014-10-02T07:50:00,0,28225896,187615
OK,84,35,750,84,2014-10-02T07:55:00,0,28226345,187615
OK,84,35,750,84,2014-10-02T08:00:00,0,28226786,187615
OK,190,15,750,190,2014-10-02T08:05:00,1,28227235,187615
OK,190,15,750,190,2014-10-02T08:10:00,0,28227650,187615
OK,190,15,750,190,2014-10-02T08:20:00,0,28228458,187615
OK,108,27,750,108,2014-10-02T08:25:00,1,28228907,187615
OK,108,27,750,108,2014-10-02T08:30:00,0,28229317,187615
OK,189,15,750,189,2014-10-02T08:40:00,0,28230116,187615
OK,189,15,750,189,2014-10-02T08:45:00,0,28230559,187615
OK,77,39,750,77,2014-10-02T08:50:00,1,28230931,187615
OK,77,39,750,77,2014-10-02T08:55:00,0,28231378,187615
OK,179,16,750,179,2014-10-02T09:00:00,2,28231803,187615
OK,164,18,750,164,2014-10-02T09:15:00,0,28232594,187615
OK,164,18,750,164,2014-10-02T09:20:00,0,28233043,187615
OK,164,18,750,164,2014-10-02T09:25:00,0,28233492,187615
OK,164,18,750,164,2014-10-02T09:30:00,0,28233916,187615
OK,76,39,750,76,2014-10-02T09:40:00,1,28234698,187615
OK,119,25,750,119,2014-10-02T09:45:00,1,28235147,187615
OK,119,25,750,119,2014-10-02T09:50:00,0,28235574,187615
OK,119,25,750,119,2014-10-02T09:55:00,0,28236023,187615
OK,119,25,750,119,2014-10-02T10:00:00,0,28236466,187615
OK,119,25,750,119,2014-10-02T10:10:00,0,28237315,187615
OK,116,26,750,116,2014-10-02T10:15:00,1,28237763,187615
OK,131,23,750,131,2014-10-02T10:20:00,2,28238212,187615
OK,147,20,750,147,2014-10-02T10:25:00,0,28238659,187615
OK,147,20,750,147,2014-10-02T10:30:00,0,28239100,187615
OK,147,20,750,147,2014-10-02T10:35:00,0,28239549,187615
OK,189,15,750,189,2014-10-02T10:40:00,1,28239979,187615
OK,189,15,750,189,2014-10-02T10:45:00,0,28240428,187615
OK,189,15,750,189,2014-10-02T10:50:00,0,28240872,187615
OK,200,15,750,200,2014-10-02T10:55:00,0,28241321,187615
OK,200,15,750,200,2014-10-02T11:00:00,0,28241753,187615
OK,200,15,750,200,2014-10-02T11:05:00,0,28242191,187615
OK,270,11,750,270,2014-10-02T11:10:00,1,28242597,187615
OK,270,11,750,270,2014-10-02T11:15:00,1,28243046,187615
OK,270,11,750,270,2014-10-02T11:20:00,0,28243495,187615
OK,270,11,750,270,2014-10-02T11:25:00,0,28243820,187615
OK,270,11,750,270,2014-10-02T11:30:00,0,28244257,187615
OK,270,11,750,270,2014-10-02T11:35:00,0,28244687,187615
OK,270,11,750,270,2014-10-02T11:40:00,0,28245136,187615
OK,270,11,750,270,2014-10-02T11:45:00,0,28245582,187615
OK,112,26,750,112,2014-10-02T11:50:00,1,28245991,187615
OK,128,23,750,128,2014-10-02T11:55:00,2,28246440,187615
OK,145,20,750,145,2014-10-02T12:00:00,1,28246877,187615
OK,145,20,750,145,2014-10-02T12:05:00,0,28247325,187615
OK,145,20,750,145,2014-10-02T12:10:00,0,28247771,187615
OK,89,33,750,89,2014-10-02T12:15:00,3,28248202,187615
OK,89,33,750,89,2014-10-02T12:20:00,0,28248651,187615
OK,89,33,750,89,2014-10-02T12:25:00,0,28249098,187615
OK,89,33,750,89,2014-10-02T12:30:00,0,28249526,187615
OK,112,26,750,112,2014-10-02T12:35:00,1,28249962,187615
OK,99,30,750,99,2014-10-02T12:45:00,1,28251118,187615
OK,99,30,750,99,2014-10-02T13:20:00,0,28251663,187615
OK,99,30,750,99,2014-10-02T13:30:00,0,28252106,187615
OK,99,30,750,99,2014-10-02T13:35:00,0,28252247,187615
OK,99,30,750,99,2014-10-02T13:40:00,0,28253108,187615
OK,413,7,750,413,2014-10-02T13:50:00,0,28253555,187615
OK,413,7,750,413,2014-10-02T13:55:00,0,28254281,187615
OK,172,17,750,172,2014-10-02T14:10:00,2,28254858,187615
OK,109,27,750,109,2014-10-02T14:20:00,0,28255307,187615
OK,109,27,750,109,2014-10-02T14:30:00,0,28256184,187615
OK,104,29,750,104,2014-10-02T14:40:00,1,28257061,187615
OK,104,29,750,104,2014-10-02T14:45:00,0,28257507,187615
OK,104,29,750,104,2014-10-02T14:50:00,0,28257950,187615
OK,104,29,750,104,2014-10-02T14:55:00,0,28258830,187615
OK,127,23,750,127,2014-10-02T15:05:00,1,28259278,187615
OK,101,29,750,101,2014-10-02T15:10:00,1,28259726,187615
OK,101,29,750,101,2014-10-02T15:20:00,0,28260607,187615
OK,101,29,750,101,2014-10-02T15:25:00,0,28261430,187615
OK,101,29,750,101,2014-10-02T15:35:00,0,28261859,187615
OK,126,23,750,126,2014-10-02T15:45:00,3,28262753,187615
OK,123,24,750,123,2014-10-02T15:50:00,2,28263631,187615
OK,123,24,750,123,2014-10-02T15:55:00,0,28264033,187615
OK,104,29,750,104,2014-10-02T16:05:00,1,28264482,187615
OK,104,29,750,104,2014-10-02T16:10:00,1,28265363,187615
OK,104,29,750,104,2014-10-02T16:15:00,0,28265756,187615
OK,104,29,750,104,2014-10-02T16:25:00,0,28266205,187615
OK,104,29,750,104,2014-10-02T16:30:00,1,28266654,187615
OK,104,29,750,104,2014-10-02T16:35:00,0,28267426,187615
OK,84,35,750,84,2014-10-02T16:45:00,1,28267875,187615
OK,109,27,750,109,2014-10-02T16:55:00,1,28268766,187615
OK,109,27,750,109,2014-10-02T17:00:00,0,28269215,187615
OK,109,27,750,109,2014-10-02T17:05:00,0,28269657,187615
OK,109,27,750,109,2014-10-02T17:10:00,0,28270099,187615
OK,109,27,750,109,2014-10-02T17:20:00,0,28270982,187615
OK,109,27,750,109,2014-10-02T17:30:00,0,28271860,187615
OK,109,27,750,109,2014-10-02T17:35:00,0,28272303,187615
OK,156,19,750,156,2014-10-02T17:45:00,1,28273186,187615
OK,156,19,750,156,2014-10-02T17:50:00,0,28273634,187615
OK,156,19,750,156,2014-10-02T17:55:00,0,28274080,187615
OK,156,19,750,156,2014-10-02T18:00:00,0,28274527,187615
OK,156,19,750,156,2014-10-02T18:05:00,0,28274856,187615
OK,156,19,750,156,2014-10-02T18:10:00,0,28275738,187615
OK,156,19,750,156,2014-10-02T18:15:00,0,28276185,187615
OK,156,19,750,156,2014-10-02T18:20:00,0,28276580,187615
OK,125,24,750,125,2014-10-02T18:35:00,1,28277029,187615
OK,125,24,750,125,2014-10-02T18:40:00,0,28277478,187615
OK,125,24,750,125,2014-10-02T18:45:00,0,28277926,187615
OK,125,24,750,125,2014-10-02T19:00:00,0,28278724,187615
OK,108,27,750,108,2014-10-02T19:10:00,0,28279173,187615